Time,TemperatureF,DewpointF,PressureIn,WindDirection,WindDirectionDegrees,WindSpeedMPH,WindSpeedGustMPH,Humidity,HourlyPrecipIn,Conditions,Clouds,dailyrainin,SoftwareType,DateUTC
2013-02-01 00:08:00,-7.4,-14.0,30.37,WNW,286,5.0,11.0,72,0.00,,,0.00,weatherlink.com 1.10,2013-02-01 06:08:00,
2013-02-01 00:23:00,-7.4,-14.0,30.37,WNW,283,4.0,9.0,71,0.00,,,0.00,weatherlink.com 1.10,2013-02-01 06:23:00,
2013-02-01 00:38:00,-7.4,-14.0,30.37,West,275,7.0,12.0,71,0.00,,,0.00,weatherlink.com 1.10,2013-02-01 06:38:00,
2013-02-01 00:54:00,-7.7,-14.0,30.37,NW,321,1.0,8.0,72,0.00,,,0.00,weatherlink.com 1.10,2013-02-01 06:54:00,
2013-02-01 01:09:00,-7.9,-15.0,30.37,NW,326,2.0,10.0,72,0.00,,,0.00,weatherlink.com 1.10,2013-02-01 07:09:00,
2013-02-01 01:24:00,-8.2,-15.0,30.37,NNW,344,7.0,13.0,71,0.00,,,0.00,weatherlink.com 1.10,2013-02-01 07:24:00,
2013-02-01 01:39:00,-8.4,-15.0,30.37,NW,305,2.0,10.0,71,0.00,,,0.00,weatherlink.com 1.10,2013-02-01 07:39:00,
2013-02-01 01:54:00,-8.6,-16.0,30.37,NNW,345,6.0,11.0,71,0.00,,,0.00,weatherlink.com 1.10,2013-02-01 07:54:00,
2013-02-01 02:09:00,-8.8,-16.0,30.38,NW,317,3.0,10.0,71,0.00,,,0.00,weatherlink.com 1.10,2013-02-01 08:09:00,
2013-02-01 02:24:00,-8.9,-16.0,30.38,NW,318,3.0,8.0,71,0.00,,,0.00,weatherlink.com 1.10,2013-02-01 08:24:00,
2013-02-01 02:39:00,-9.0,-16.0,30.38,NW,315,5.0,10.0,71,0.00,,,0.00,weatherlink.com 1.10,2013-02-01 08:39:00,
2013-02-01 02:54:00,-9.1,-16.0,30.39,NNW,344,0.0,10.0,71,0.00,,,0.00,weatherlink.com 1.10,2013-02-01 08:54:00,
2013-02-01 03:09:00,-9.1,-16.0,30.38,West,277,1.0,7.0,71,0.00,,,0.00,weatherlink.com 1.10,2013-02-01 09:09:00,
2013-02-01 03:24:00,-9.2,-16.0,30.39,West,269,3.0,7.0,72,0.00,,,0.00,weatherlink.com 1.10,2013-02-01 09:24:00,
2013-02-01 03:39:00,-9.1,-16.0,30.39,NW,309,4.0,9.0,72,0.00,,,0.00,weatherlink.com 1.10,2013-02-01 09:39:00,
2013-02-01 03:54:00,-9.1,-16.0,30.39,NW,307,2.0,7.0,72,0.00,,,0.00,weatherlink.com 1.10,2013-02-01 09:54:00,
2013-02-01 04:10:00,-9.1,-16.0,30.38,WNW,298,4.0,10.0,72,0.00,,,0.00,weatherlink.com 1.10,2013-02-01 10:10:00,
2013-02-01 04:25:00,-9.1,-16.0,30.39,WSW,253,4.0,6.0,72,0.00,,,0.00,weatherlink.com 1.10,2013-02-01 10:25:00,
2013-02-01 04:40:00,-9.1,-16.0,30.39,NW,317,0.0,6.0,73,0.00,,,0.00,weatherlink.com 1.10,2013-02-01 10:40:00,
2013-02-01 04:55:00,-9.2,-16.0,30.39,NW,307,7.0,8.0,73,0.00,,,0.00,weatherlink.com 1.10,2013-02-01 10:55:00,
2013-02-01 05:10:00,-9.2,-16.0,30.39,WNW,284,3.0,5.0,73,0.00,,,0.00,weatherlink.com 1.10,2013-02-01 11:10:00,
2013-02-01 05:25:00,-9.1,-16.0,30.39,West,273,3.0,7.0,73,0.00,,,0.00,weatherlink.com 1.10,2013-02-01 11:25:00,
2013-02-01 05:40:00,-9.1,-16.0,30.39,NW,312,3.0,9.0,73,0.00,,,0.00,weatherlink.com 1.10,2013-02-01 11:40:00,
2013-02-01 05:55:00,-9.3,-16.0,30.37,NNW,337,1.0,11.0,73,0.00,,,0.00,weatherlink.com 1.10,2013-02-01 11:55:00,
2013-02-01 06:10:00,-9.4,-16.0,30.38,NNW,335,2.0,5.0,73,0.00,,,0.00,weatherlink.com 1.10,2013-02-01 12:10:00,
2013-02-01 06:25:00,-9.4,-16.0,30.39,West,277,1.0,7.0,73,0.00,,,0.00,weatherlink.com 1.10,2013-02-01 12:25:00,
2013-02-01 06:40:00,-9.3,-15.0,30.38,West,277,3.0,4.0,74,0.00,,,0.00,weatherlink.com 1.10,2013-02-01 12:40:00,
2013-02-01 06:55:00,-9.5,-16.0,30.38,West,277,2.0,3.0,74,0.00,,,0.00,weatherlink.com 1.10,2013-02-01 12:55:00,
2013-02-01 07:10:00,-9.6,-16.0,30.37,West,278,0.0,2.0,74,0.00,,,0.00,weatherlink.com 1.10,2013-02-01 13:10:00,
2013-02-01 07:26:00,-9.7,-16.0,30.37,West,278,0.0,3.0,74,0.00,,,0.00,weatherlink.com 1.10,2013-02-01 13:26:00,
2013-02-01 07:41:00,-9.4,-15.0,30.38,West,270,1.0,8.0,75,0.00,,,0.00,weatherlink.com 1.10,2013-02-01 13:41:00,
2013-02-01 07:56:00,-8.6,-14.0,30.38,West,279,1.0,7.0,76,0.00,,,0.00,weatherlink.com 1.10,2013-02-01 13:56:00,
2013-02-01 08:11:00,-8.0,-14.0,30.38,West,264,1.0,8.0,76,0.00,,,0.00,weatherlink.com 1.10,2013-02-01 14:11:00,
2013-02-01 08:26:00,-7.5,-13.0,30.38,West,281,3.0,7.0,76,0.00,,,0.00,weatherlink.com 1.10,2013-02-01 14:26:00,
2013-02-01 08:41:00,-7.3,-13.0,30.38,SW,236,3.0,6.0,75,0.00,,,0.00,weatherlink.com 1.10,2013-02-01 14:41:00,
2013-02-01 08:56:00,-6.8,-13.0,30.38,West,260,1.0,7.0,74,0.00,,,0.00,weatherlink.com 1.10,2013-02-01 14:56:00,
2013-02-01 09:11:00,-6.0,-13.0,30.38,West,261,7.0,9.0,73,0.00,,,0.00,weatherlink.com 1.10,2013-02-01 15:11:00,
2013-02-01 09:26:00,-5.1,-12.0,30.37,West,262,4.0,9.0,72,0.00,,,0.00,weatherlink.com 1.10,2013-02-01 15:26:00,
2013-02-01 09:41:00,-4.4,-12.0,30.37,West,276,2.0,8.0,71,0.00,,,0.00,weatherlink.com 1.10,2013-02-01 15:41:00,
2013-02-01 09:56:00,-3.7,-11.0,30.37,West,270,1.0,7.0,71,0.00,,,0.00,weatherlink.com 1.10,2013-02-01 15:56:00,
2013-02-01 10:12:00,-2.4,-10.0,30.36,WSW,248,4.0,8.0,70,0.00,,,0.00,weatherlink.com 1.10,2013-02-01 16:12:00,
2013-02-01 10:26:00,-1.6,-10.0,30.37,SW,232,3.0,7.0,68,0.00,,,0.00,weatherlink.com 1.10,2013-02-01 16:26:00,
2013-02-01 10:42:00,-0.7,-9.0,30.37,WSW,238,2.0,8.0,67,0.00,,,0.00,weatherlink.com 1.10,2013-02-01 16:42:00,
2013-02-01 10:56:00,0.2,-8.0,30.36,WSW,246,4.0,8.0,68,0.00,,,0.00,weatherlink.com 1.10,2013-02-01 16:56:00,
2013-02-01 11:12:00,0.1,-9.0,30.35,WSW,246,3.0,8.0,65,0.00,,,0.00,weatherlink.com 1.10,2013-02-01 17:12:00,
2013-02-01 11:27:00,1.8,-7.0,30.35,SSW,203,6.0,7.0,67,0.00,,,0.00,weatherlink.com 1.10,2013-02-01 17:27:00,
2013-02-01 11:42:00,2.2,-8.0,30.34,SW,215,4.0,8.0,64,0.00,,,0.00,weatherlink.com 1.10,2013-02-01 17:42:00,
2013-02-01 11:57:00,2.8,-7.0,30.34,West,260,2.0,9.0,64,0.00,,,0.00,weatherlink.com 1.10,2013-02-01 17:57:00,
2013-02-01 12:12:00,3.7,-6.0,30.32,SW,227,5.0,10.0,65,0.00,,,0.00,weatherlink.com 1.10,2013-02-01 18:12:00,
2013-02-01 12:27:00,4.2,-6.0,30.31,SSW,203,7.0,8.0,63,0.00,,,0.00,weatherlink.com 1.10,2013-02-01 18:27:00,
2013-02-01 12:42:00,4.7,-5.0,30.30,SSW,204,4.0,11.0,64,0.00,,,0.00,weatherlink.com 1.10,2013-02-01 18:42:00,
2013-02-01 12:57:00,5.2,-4.0,30.29,South,177,2.0,7.0,65,0.00,,,0.00,weatherlink.com 1.10,2013-02-01 18:57:00,
2013-02-01 13:12:00,5.2,-4.0,30.29,SSW,199,5.0,9.0,65,0.00,,,0.00,weatherlink.com 1.10,2013-02-01 19:12:00,
2013-02-01 13:27:00,5.4,-4.0,30.28,SW,215,0.0,7.0,65,0.00,,,0.00,weatherlink.com 1.10,2013-02-01 19:27:00,
2013-02-01 13:42:00,5.5,-4.0,30.15,SSW,201,1.0,9.0,64,0.00,,,0.00,weatherlink.com 1.10,2013-02-01 19:42:00,
2013-02-01 13:57:00,7.1,-4.0,30.14,SSW,207,7.0,9.0,62,0.00,,,0.00,weatherlink.com 1.10,2013-02-01 19:57:00,
2013-02-01 14:13:00,8.1,-3.0,30.14,SW,223,6.0,8.0,61,0.00,,,0.00,weatherlink.com 1.10,2013-02-01 20:13:00,
2013-02-01 14:43:00,9.2,-1.0,30.11,South,174,3.0,7.0,64,0.00,,,0.00,weatherlink.com 1.10,2013-02-01 20:43:00,
2013-02-01 14:58:00,9.0,-1.0,30.10,South,184,3.0,7.0,65,0.00,,,0.00,weatherlink.com 1.10,2013-02-01 20:58:00,
2013-02-01 15:28:00,9.1,0.0,30.07,SSE,161,3.0,7.0,67,0.00,,,0.00,weatherlink.com 1.10,2013-02-01 21:28:00,
2013-02-01 15:43:00,9.2,1.0,30.07,South,182,3.0,11.0,69,0.00,,,0.00,weatherlink.com 1.10,2013-02-01 21:43:00,
2013-02-01 15:58:00,9.5,1.0,30.06,SSW,202,1.0,9.0,68,0.00,,,0.00,weatherlink.com 1.10,2013-02-01 21:58:00,
2013-02-01 16:13:00,9.4,1.0,30.05,SSW,193,6.0,10.0,69,0.00,,,0.00,weatherlink.com 1.10,2013-02-01 22:13:00,
2013-02-01 16:28:00,8.9,1.0,30.05,SSW,213,7.0,10.0,69,0.00,,,0.00,weatherlink.com 1.10,2013-02-01 22:28:00,
2013-02-01 16:43:00,8.6,1.0,30.05,South,188,4.0,8.0,70,0.00,,,0.00,weatherlink.com 1.10,2013-02-01 22:43:00,
2013-02-01 16:58:00,8.1,1.0,30.05,SSW,198,3.0,9.0,73,0.00,,,0.00,weatherlink.com 1.10,2013-02-01 22:58:00,
2013-02-01 17:13:00,8.1,2.0,30.05,SSW,205,4.0,15.0,75,0.00,,,0.00,weatherlink.com 1.10,2013-02-01 23:13:00,
2013-02-01 17:29:00,8.1,2.0,30.04,SSW,195,6.0,11.0,77,0.00,,,0.00,weatherlink.com 1.10,2013-02-01 23:29:00,
2013-02-01 17:44:00,7.8,2.0,30.03,South,190,5.0,14.0,78,0.00,,,0.00,weatherlink.com 1.10,2013-02-01 23:44:00,
2013-02-01 17:59:00,7.7,3.0,30.02,SSW,209,5.0,8.0,79,0.00,,,0.00,weatherlink.com 1.10,2013-02-01 23:59:00,
2013-02-01 18:14:00,7.4,3.0,30.01,SSW,205,1.0,7.0,80,0.00,,,0.00,weatherlink.com 1.10,2013-02-02 00:14:00,
2013-02-01 18:29:00,7.4,3.0,30.02,South,173,2.0,8.0,81,0.00,,,0.00,weatherlink.com 1.10,2013-02-02 00:29:00,
2013-02-01 18:44:00,7.6,3.0,30.01,South,187,2.0,7.0,80,0.00,,,0.00,weatherlink.com 1.10,2013-02-02 00:44:00,
2013-02-01 18:59:00,7.7,3.0,30.02,WSW,246,3.0,7.0,80,0.00,,,0.00,weatherlink.com 1.10,2013-02-02 00:59:00,
2013-02-01 19:14:00,7.7,3.0,30.01,SSW,207,3.0,8.0,80,0.00,,,0.00,weatherlink.com 1.10,2013-02-02 01:14:00,
2013-02-01 19:29:00,7.9,3.0,30.00,SSW,211,2.0,7.0,80,0.00,,,0.00,weatherlink.com 1.10,2013-02-02 01:29:00,
2013-02-01 19:44:00,8.2,3.0,30.00,SSW,193,2.0,7.0,80,0.00,,,0.00,weatherlink.com 1.10,2013-02-02 01:44:00,
2013-02-01 19:59:00,8.5,4.0,29.99,South,186,0.0,5.0,80,0.00,,,0.00,weatherlink.com 1.10,2013-02-02 01:59:00,
2013-02-01 20:14:00,8.9,4.0,30.00,South,177,1.0,4.0,80,0.00,,,0.00,weatherlink.com 1.10,2013-02-02 02:14:00,
2013-02-01 20:29:00,9.0,4.0,29.99,SSE,149,0.0,4.0,81,0.00,,,0.00,weatherlink.com 1.10,2013-02-02 02:29:00,
2013-02-01 20:44:00,9.1,4.0,29.98,SSE,148,0.0,3.0,81,0.00,,,0.00,weatherlink.com 1.10,2013-02-02 02:44:00,
2013-02-01 21:00:00,9.5,5.0,29.98,SSE,163,2.0,3.0,81,0.00,,,0.00,weatherlink.com 1.10,2013-02-02 03:00:00,
2013-02-01 21:15:00,10.0,5.0,29.98,SSE,163,0.0,3.0,81,0.00,,,0.00,weatherlink.com 1.10,2013-02-02 03:15:00,
2013-02-01 21:30:00,9.9,5.0,29.98,SSE,163,1.0,3.0,81,0.00,,,0.00,weatherlink.com 1.10,2013-02-02 03:30:00,
2013-02-01 21:45:00,10.3,6.0,29.97,SSE,163,1.0,3.0,81,0.00,,,0.00,weatherlink.com 1.10,2013-02-02 03:45:00,
2013-02-01 22:00:00,10.1,5.0,29.96,SSE,163,0.0,3.0,81,0.00,,,0.00,weatherlink.com 1.10,2013-02-02 04:00:00,
2013-02-01 22:15:00,10.0,5.0,29.96,SSE,163,1.0,4.0,81,0.00,,,0.00,weatherlink.com 1.10,2013-02-02 04:15:00,
2013-02-01 22:30:00,10.0,6.0,29.96,SSE,163,1.0,4.0,82,0.00,,,0.00,weatherlink.com 1.10,2013-02-02 04:30:00,
2013-02-01 22:45:00,10.3,6.0,29.95,SSE,163,0.0,3.0,82,0.00,,,0.00,weatherlink.com 1.10,2013-02-02 04:45:00,
2013-02-01 23:00:00,10.7,6.0,29.95,SSE,163,0.0,3.0,82,0.00,,,0.00,weatherlink.com 1.10,2013-02-02 05:00:00,
2013-02-01 23:15:00,11.0,7.0,29.94,SSE,163,1.0,3.0,82,0.00,,,0.00,weatherlink.com 1.10,2013-02-02 05:15:00,
2013-02-01 23:30:00,11.2,7.0,29.94,SSE,163,0.0,3.0,82,0.00,,,0.00,weatherlink.com 1.10,2013-02-02 05:30:00,
2013-02-01 23:46:00,11.3,7.0,29.94,SSE,163,1.0,2.0,82,0.00,,,0.00,weatherlink.com 1.10,2013-02-02 05:46:00,